Location: Aufkirchen
(47.9603°N, 11.3653°E)
Time: 15:03:00
(UTC+01:00)

Transit 2A Rocket - Pass Details

Date: 08 December 2020
Orbit: 592 x 910 km, 66.7° (Epoch: 21 January)

Event Time Altitude Azimuth Distance (km) Brightness Sun altitude
Rises 01:30:10 0° 245° (WSW) 3,467 - -59.8°
Reaches altitude 10° 01:33:00 10° 255° (WSW) 2,495 - -59.4°
Maximum altitude 01:38:08 32° 318° (NW) 1,366 - -58.9°
Drops below altitude 10° 01:42:57 10° 21° (NNE) 2,325 - -58.3°
Sets 01:45:30 0° 32° (NNE) 3,199 - -58.0°
